| time (UTC) | temp F | wind direction | speed MPH | gust MPH | rain 1hr in | rain 24hr in | rain mn in | humidity % | barometer mb |
| 20260505014453 | 57 | 275 | 0.0 | 0.0 | 0.00 | 0.00 | 0.00 | 62 | 1011.0 |
| 20260505014204 | 57 | 230 | 0.0 | 0.0 | 0.00 | 0.00 | 0.00 | 61 | 1011.0 |
| 20260505014154 | 57 | 278 | 0.0 | 0.0 | 0.00 | 0.00 | 0.00 | 61 | 1010.9 |
| 20260505012953 | 57 | 228 | 0.0 | 1.0 | 0.00 | 0.00 | 0.00 | 61 | 1010.9 |
| 20260505012452 | 58 | 228 | 0.0 | 1.0 | 0.00 | 0.00 | 0.00 | 60 | 1010.8 |
| 20260505011953 | 58 | 226 | 0.0 | 3.0 | 0.00 | 0.00 | 0.00 | 59 | 1010.7 |
| 20260505011452 | 58 | 227 | 0.0 | 3.0 | 0.00 | 0.00 | 0.00 | 59 | 1010.7 |
| 20260505010952 | 58 | 212 | 0.0 | 0.0 | 0.00 | 0.00 | 0.00 | 59 | 1010.6 |
| 20260505010452 | 58 | 216 | 0.0 | 0.0 | 0.00 | 0.00 | 0.00 | 58 | 1010.5 |
| 20260505010218 | 58 | 221 | 0.0 | 0.0 | 0.00 | 0.00 | 0.00 | 58 | 1010.4 |
| 20260505005451 | 59 | 274 | 0.0 | 0.0 | 0.00 | 0.00 | 0.00 | 57 | 1010.3 |
| 20260505004952 | 59 | 175 | 0.0 | 1.0 | 0.00 | 0.00 | 0.00 | 56 | 1010.3 |
| 20260505004452 | 59 | 230 | 0.0 | 1.0 | 0.00 | 0.00 | 0.00 | 56 | 1010.1 |
| 20260505004214 | 60 | 228 | 0.0 | 0.0 | 0.00 | 0.00 | 0.00 | 55 | 1010.0 |
| 20260505003450 | 60 | 212 | 0.0 | 0.0 | 0.00 | 0.00 | 0.00 | 53 | 1010.0 |
| 20260505002950 | 60 | 212 | 0.0 | 0.0 | 0.00 | 0.00 | 0.00 | 53 | 1009.7 |
| 20260505002449 | 60 | 212 | 0.0 | 0.0 | 0.00 | 0.00 | 0.00 | 53 | 1009.6 |
| 20260505001955 | 61 | 216 | 0.0 | 0.0 | 0.00 | 0.00 | 0.00 | 52 | 1009.5 |
| 20260505001650 | 0 | 220 | 0.0 | 0.0 | 0.00 | 0.00 | 0.00 | 1009.3 | |
| 20260505000931 | 0 | 0.0 | 0.0 | 0.00 | 0.00 | 0.00 | 1009.3 | ||
| 20260505000431 | 61 | 210 | 0.0 | 5.0 | 0.00 | 0.00 | 0.00 | 51 | 1009.2 |
| 20260504235932 | 61 | 210 | 0.0 | 5.0 | 0.00 | 0.00 | 0.00 | 51 | 1009.0 |
| 20260504235432 | 62 | 258 | 0.0 | 2.0 | 0.00 | 0.00 | 0.00 | 51 | 1009.2 |
| 20260504234932 | 62 | 227 | 0.0 | 0.0 | 0.00 | 0.00 | 0.00 | 51 | 1009.0 |
| 20260504234403 | 62 | 227 | 0.0 | 1.0 | 0.00 | 0.00 | 0.00 | 51 | 1008.8 |
| 20260504233902 | 62 | 203 | 0.0 | 5.0 | 0.00 | 0.00 | 0.00 | 51 | 1008.8 |
| 20260504233402 | 63 | 193 | 1.0 | 5.0 | 0.00 | 0.00 | 0.00 | 50 | 1008.7 |
| 20260504233130 | 63 | 272 | 0.0 | 1.0 | 0.00 | 0.00 | 0.00 | 49 | 1008.6 |
| 20260504232404 | 63 | 221 | 0.0 | 0.0 | 0.00 | 0.00 | 0.00 | 49 | 1008.6 |
| 20260504231903 | 63 | 295 | 0.0 | 0.0 | 0.00 | 0.00 | 0.00 | 49 | 1008.5 |
| 20260504231403 | 0 | 0.0 | 0.0 | 0.00 | 0.00 | 0.00 | 1008.6 | ||
| 20260504230903 | 65 | 274 | 0.0 | 2.0 | 0.00 | 0.00 | 0.00 | 48 | 1008.4 |
| 20260504230402 | 65 | 274 | 0.0 | 3.0 | 0.00 | 0.00 | 0.00 | 48 | 1008.4 |
| 20260504225902 | 65 | 272 | 0.0 | 3.0 | 0.00 | 0.00 | 0.00 | 48 | 1008.3 |
| 20260504225624 | 65 | 285 | 0.0 | 0.0 | 0.00 | 0.00 | 0.00 | 48 | 1008.2 |
| 20260504224903 | 65 | 210 | 0.0 | 2.0 | 0.00 | 0.00 | 0.00 | 48 | 1008.1 |
| 20260504224402 | 65 | 193 | 0.0 | 3.0 | 0.00 | 0.00 | 0.00 | 47 | 1008.0 |
| 20260504224127 | 66 | 298 | 0.0 | 3.0 | 0.00 | 0.00 | 0.00 | 46 | 1007.9 |
| 20260504223402 | 66 | 176 | 0.0 | 4.0 | 0.00 | 0.00 | 0.00 | 46 | 1007.9 |
| 20260504222902 | 67 | 274 | 0.0 | 4.0 | 0.00 | 0.00 | 0.00 | 45 | 1007.8 |
| 20260504222626 | 67 | 268 | 0.0 | 1.0 | 0.00 | 0.00 | 0.00 | 45 | 1007.8 |
| 20260504221902 | 67 | 235 | 0.0 | 1.0 | 0.00 | 0.00 | 0.00 | 45 | 1007.9 |
| 20260504221404 | 67 | 230 | 0.0 | 1.0 | 0.00 | 0.00 | 0.00 | 44 | 1007.8 |
| 20260504220904 | 68 | 196 | 0.0 | 12.0 | 0.00 | 0.00 | 0.00 | 43 | 1007.9 |
| 20260504220402 | 68 | 259 | 0.0 | 12.0 | 0.00 | 0.00 | 0.00 | 42 | 1007.7 |
| 20260504215903 | 68 | 237 | 0.0 | 3.0 | 0.00 | 0.00 | 0.00 | 42 | 1007.7 |
| 20260504215404 | 68 | 278 | 0.0 | 3.0 | 0.00 | 0.00 | 0.00 | 41 | 1007.8 |
| 20260504214904 | 69 | 192 | 0.0 | 0.0 | 0.00 | 0.00 | 0.00 | 41 | 1007.7 |
| 20260504214402 | 69 | 192 | 0.0 | 2.0 | 0.00 | 0.00 | 0.00 | 41 | 1007.7 |
| 20260504213902 | 69 | 298 | 0.0 | 2.0 | 0.00 | 0.00 | 0.00 | 41 | 1007.7 |
| 20260504213402 | 69 | 210 | 0.0 | 4.0 | 0.00 | 0.00 | 0.00 | 39 | 1007.7 |
| 20260504213341 | 70 | 185 | 0.0 | 4.0 | 0.00 | 0.00 | 0.00 | 39 | 1007.7 |
| 20260504212403 | 70 | 192 | 0.0 | 1.0 | 0.00 | 0.00 | 0.00 | 39 | 1007.7 |
| 20260504211903 | 70 | 282 | 0.0 | 2.0 | 0.00 | 0.00 | 0.00 | 38 | 1007.6 |
| 20260504211403 | 70 | 212 | 0.0 | 2.0 | 0.00 | 0.00 | 0.00 | 38 | 1007.5 |
| 20260504210902 | 71 | 223 | 0.0 | 0.0 | 0.00 | 0.00 | 0.00 | 35 | 1007.4 |
| 20260504210402 | 71 | 223 | 0.0 | 3.0 | 0.00 | 0.00 | 0.00 | 35 | 1007.5 |
| 20260504205903 | 72 | 269 | 0.0 | 3.0 | 0.00 | 0.00 | 0.00 | 35 | 1007.5 |
| 20260504205403 | 72 | 271 | 0.0 | 1.0 | 0.00 | 0.00 | 0.00 | 35 | 1007.2 |
| 20260504204902 | 72 | 307 | 0.0 | 1.0 | 0.00 | 0.00 | 0.00 | 36 | 1007.3 |
| 20260504204632 | 71 | 233 | 0.0 | 0.0 | 0.00 | 0.00 | 0.00 | 35 | 1007.3 |
| 20260504203902 | 71 | 233 | 0.0 | 0.0 | 0.00 | 0.00 | 0.00 | 35 | 1007.4 |
| 20260504203402 | 72 | 316 | 0.0 | 0.0 | 0.00 | 0.00 | 0.00 | 34 | 1007.5 |
| 20260504202904 | 72 | 316 | 0.0 | 1.0 | 0.00 | 0.00 | 0.00 | 34 | 1007.6 |
| 20260504202402 | 71 | 252 | 0.0 | 1.0 | 0.00 | 0.00 | 0.00 | 34 | 1007.4 |
| 20260504201902 | 71 | 210 | 0.0 | 1.0 | 0.00 | 0.00 | 0.00 | 34 | 1007.4 |
| 20260504201403 | 71 | 210 | 0.0 | 1.0 | 0.00 | 0.00 | 0.00 | 34 | 1007.4 |
| 20260504200902 | 71 | 228 | 0.0 | 7.0 | 0.00 | 0.00 | 0.00 | 34 | 1007.5 |
| 20260504200402 | 71 | 323 | 1.0 | 7.0 | 0.00 | 0.00 | 0.00 | 34 | 1007.6 |
| 20260504195901 | 71 | 326 | 0.0 | 6.0 | 0.00 | 0.00 | 0.00 | 35 | 1007.7 |
| 20260504195402 | 71 | 237 | 0.0 | 1.0 | 0.00 | 0.00 | 0.00 | 33 | 1007.6 |
| 20260504194903 | 72 | 269 | 0.0 | 3.0 | 0.00 | 0.00 | 0.00 | 32 | 1007.6 |
| 20260504194402 | 72 | 310 | 0.0 | 3.0 | 0.00 | 0.00 | 0.00 | 35 | 1007.6 |
| 20260504193903 | 71 | 293 | 0.0 | 2.0 | 0.00 | 0.00 | 0.00 | 33 | 1007.5 |
| 20260504193621 | 71 | 333 | 0.0 | 9.0 | 0.00 | 0.00 | 0.00 | 34 | 1007.6 |
| 20260504193104 | 71 | 312 | 0.0 | 2.0 | 0.00 | 0.00 | 0.00 | 33 | 1007.6 |
| 20260504193052 | 71 | 250 | 1.0 | 9.0 | 0.00 | 0.00 | 0.00 | 34 | 1007.5 |
| 20260504191902 | 71 | 209 | 0.0 | 1.0 | 0.00 | 0.00 | 0.00 | 33 | 1007.7 |
| 20260504191403 | 71 | 228 | 1.0 | 6.0 | 0.00 | 0.00 | 0.00 | 35 | 1007.6 |
| 20260504190902 | 71 | 228 | 1.0 | 6.0 | 0.00 | 0.00 | 0.00 | 35 | 1007.5 |
| 20260504190403 | 71 | 279 | 0.0 | 6.0 | 0.00 | 0.00 | 0.00 | 34 | 1007.7 |
| 20260504190122 | 70 | 197 | 1.0 | 6.0 | 0.00 | 0.00 | 0.00 | 34 | 1007.8 |
| 20260504185402 | 71 | 281 | 1.0 | 6.0 | 0.00 | 0.00 | 0.00 | 33 | 1007.7 |
| 20260504185129 | 70 | 317 | 1.0 | 5.0 | 0.00 | 0.00 | 0.00 | 34 | 1007.8 |
| 20260504184402 | 70 | 303 | 0.0 | 1.0 | 0.00 | 0.00 | 0.00 | 34 | 1007.9 |
| 20260504183903 | 0 | 0.0 | 0.0 | 0.00 | 0.00 | 0.00 | 1007.8 | ||
| 20260504183402 | 0 | 313 | 0.0 | 0.0 | 0.00 | 0.00 | 0.00 | 1007.9 | |
| 20260504182902 | 70 | 313 | 0.0 | 1.0 | 0.00 | 0.00 | 0.00 | 34 | 1007.9 |
| 20260504182403 | 70 | 200 | 0.0 | 12.0 | 0.00 | 0.00 | 0.00 | 34 | 1008.0 |
| 20260504181903 | 70 | 230 | 1.0 | 12.0 | 0.00 | 0.00 | 0.00 | 34 | 1008.0 |
| 20260504181402 | 70 | 290 | 0.0 | 7.0 | 0.00 | 0.00 | 0.00 | 32 | 1008.1 |
| 20260504180903 | 70 | 0 | 1.0 | 5.0 | 0.00 | 0.00 | 0.00 | 33 | 1008.2 |
| 20260504180403 | 70 | 265 | 0.0 | 5.0 | 0.00 | 0.00 | 0.00 | 35 | 1008.0 |
| 20260504175901 | 70 | 185 | 0.0 | 4.0 | 0.00 | 0.00 | 0.00 | 34 | 1008.3 |
| 20260504175403 | 70 | 341 | 1.0 | 7.0 | 0.00 | 0.00 | 0.00 | 35 | 1008.3 |
| 20260504174847 | 70 | 334 | 2.0 | 7.0 | 0.00 | 0.00 | 0.00 | 34 | 1008.4 |
| 20260504174345 | 69 | 266 | 0.0 | 3.0 | 0.00 | 0.00 | 0.00 | 34 | 1008.4 |
| 20260504173832 | 69 | 269 | 0.0 | 2.0 | 0.00 | 0.00 | 0.00 | 33 | 1008.2 |
| 20260504173811 | 68 | 268 | 0.0 | 4.0 | 0.00 | 0.00 | 0.00 | 33 | 1008.4 |
| 20260504173228 | 69 | 197 | 0.0 | 4.0 | 0.00 | 0.00 | 0.00 | 35 | 1008.4 |
| 20260504173221 | 68 | 220 | 0.0 | 0.0 | 0.00 | 0.00 | 0.00 | 35 | 1008.4 |
| 20260504171814 | 68 | 220 | 0.0 | 0.0 | 0.00 | 0.00 | 0.00 | 35 | 1008.4 |
| 20260504171315 | 68 | 244 | 1.0 | 0.0 | 0.00 | 0.00 | 0.00 | 36 | 1008.4 |
| 20260504170811 | 68 | 244 | 1.0 | 5.0 | 0.00 | 0.00 | 0.00 | 36 | 1008.4 |
| 20260504170314 | 68 | 244 | 1.0 | 22.0 | 0.00 | 0.00 | 0.00 | 35 | 1008.3 |
| 20260504160305 | 66 | 293 | 1.0 | 9.0 | 0.00 | 0.00 | 0.00 | 36 | 1009.1 |
| 20260504150803 | 65 | 265 | 0.0 | 1.0 | 0.00 | 0.01 | 0.00 | 38 | 1009.8 |
| 20260504150520 | 64 | 334 | 2.0 | 10.0 | 0.00 | 0.01 | 0.00 | 41 | 1010.0 |
| 20260504150247 | 64 | 334 | 2.0 | 10.0 | 0.00 | 0.01 | 0.00 | 41 | 1009.9 |
| 20260504141302 | 62 | 313 | 0.0 | 2.0 | 0.00 | 0.01 | 0.00 | 43 | 1010.2 |
| 20260504141031 | 62 | 313 | 0.0 | 11.0 | 0.00 | 0.01 | 0.00 | 43 | 1010.2 |
| 20260504140302 | 62 | 298 | 2.0 | 11.0 | 0.00 | 0.01 | 0.00 | 43 | 1010.2 |
| 20260504130802 | 58 | 282 | 0.0 | 1.0 | 0.00 | 0.01 | 0.00 | 49 | 1010.9 |
| 20260504130302 | 57 | 295 | 0.0 | 1.0 | 0.00 | 0.01 | 0.00 | 51 | 1010.9 |
| 20260504120301 | 50 | 316 | 0.0 | 1.0 | 0.00 | 0.01 | 0.00 | 59 | 1011.2 |
| 20260504110303 | 47 | 234 | 0.0 | 0.0 | 0.00 | 0.01 | 0.00 | 61 | 1011.2 |
| 20260504100303 | 45 | 245 | 0.0 | 0.0 | 0.00 | 0.01 | 0.00 | 63 | 1011.1 |
| 20260504081726 | 45 | 283 | 0.0 | 0.0 | 0.00 | 0.01 | 0.00 | 60 | 1010.7 |
| 20260504081227 | 45 | 283 | 0.0 | 0.0 | 0.00 | 0.01 | 0.00 | 61 | 1010.6 |
| 20260504080726 | 45 | 283 | 0.0 | 0.0 | 0.00 | 0.01 | 0.00 | 60 | 1010.6 |
| 20260504080226 | 45 | 283 | 0.0 | 0.0 | 0.00 | 0.01 | 0.00 | 60 | 1010.6 |
| 20260504070216 | 44 | 272 | 0.0 | 0.0 | 0.00 | 0.01 | 0.00 | 60 | 1010.5 |
| 20260504060203 | 43 | 272 | 0.0 | 0.0 | 0.00 | 0.01 | 0.00 | 62 | 1010.6 |
| 20260504050702 | 43 | 272 | 0.0 | 0.0 | 0.00 | 0.01 | 0.00 | 63 | 1010.7 |
| 20260504050204 | 43 | 272 | 0.0 | 0.0 | 0.00 | 0.01 | 0.00 | 63 | 1010.6 |
| 20260504045935 | 43 | 272 | 0.0 | 0.0 | 0.00 | 0.01 | 0.00 | 63 | 1010.7 |
| 20260504045203 | 43 | 272 | 0.0 | 1.0 | 0.00 | 0.01 | 0.00 | 62 | 1010.7 |
| 20260504044702 | 43 | 272 | 0.0 | 1.0 | 0.00 | 0.01 | 0.00 | 63 | 1010.7 |
| 20260504044204 | 42 | 272 | 0.0 | 0.0 | 0.00 | 0.01 | 0.00 | 62 | 1010.7 |
| 20260504043702 | 42 | 272 | 0.0 | 0.0 | 0.00 | 0.01 | 0.00 | 61 | 1010.6 |
| 20260504043203 | 42 | 272 | 0.0 | 0.0 | 0.00 | 0.01 | 0.00 | 62 | 1010.6 |
| 20260504042701 | 42 | 272 | 0.0 | 0.0 | 0.00 | 0.01 | 0.00 | 62 | 1010.7 |
| 20260504042201 | 42 | 268 | 0.0 | 0.0 | 0.00 | 0.01 | 0.00 | 64 | 1010.6 |
| 20260504041701 | 42 | 268 | 0.0 | 0.0 | 0.00 | 0.01 | 0.00 | 65 | 1010.6 |
| 20260504041201 | 42 | 268 | 0.0 | 0.0 | 0.00 | 0.01 | 0.00 | 64 | 1010.6 |
| 20260504040701 | 42 | 268 | 0.0 | 0.0 | 0.00 | 0.01 | 0.00 | 64 | 1010.5 |
| 20260504040425 | 42 | 268 | 0.0 | 0.0 | 0.00 | 0.01 | 0.00 | 63 | 1010.4 |
| 20260504035701 | 42 | 268 | 0.0 | 0.0 | 0.00 | 0.01 | 0.01 | 63 | 1010.3 |
| 20260504035201 | 42 | 268 | 0.0 | 0.0 | 0.00 | 0.01 | 0.01 | 64 | 1010.4 |
| 20260504034702 | 42 | 268 | 0.0 | 0.0 | 0.00 | 0.01 | 0.01 | 63 | 1010.3 |
| 20260504034201 | 42 | 268 | 0.0 | 0.0 | 0.00 | 0.01 | 0.01 | 64 | 1010.3 |
| 20260504033701 | 42 | 268 | 0.0 | 0.0 | 0.00 | 0.01 | 0.01 | 63 | 1010.3 |
| 20260504033159 | 42 | 268 | 0.0 | 0.0 | 0.00 | 0.01 | 0.01 | 63 | 1010.3 |
| 20260504032928 | 42 | 268 | 0.0 | 0.0 | 0.00 | 0.01 | 0.01 | 64 | 1010.2 |
| 20260504032159 | 42 | 268 | 0.0 | 0.0 | 0.00 | 0.01 | 0.01 | 64 | 1010.1 |
| 20260504031700 | 42 | 268 | 0.0 | 0.0 | 0.00 | 0.01 | 0.01 | 65 | 1010.0 |
| 20260504031200 | 42 | 268 | 0.0 | 0.0 | 0.00 | 0.01 | 0.01 | 65 | 1010.1 |
| 20260504030700 | 41 | 317 | 0.0 | 0.0 | 0.00 | 0.01 | 0.01 | 65 | 1010.0 |
| 20260504030159 | 41 | 317 | 0.0 | 0.0 | 0.00 | 0.01 | 0.01 | 65 | 1010.0 |
| 20260504025659 | 41 | 317 | 0.0 | 0.0 | 0.00 | 0.01 | 0.01 | 64 | 1009.9 |
| 20260504025200 | 41 | 317 | 0.0 | 0.0 | 0.00 | 0.01 | 0.01 | 63 | 1010.0 |
| 20260504024659 | 41 | 317 | 0.0 | 0.0 | 0.00 | 0.01 | 0.01 | 63 | 1010.0 |
| 20260504024159 | 41 | 317 | 0.0 | 0.0 | 0.00 | 0.01 | 0.01 | 63 | 1009.9 |
| 20260504024146 | 41 | 317 | 0.0 | 0.0 | 0.00 | 0.01 | 0.01 | 63 | 1010.0 |
| 20260504023159 | 41 | 317 | 0.0 | 0.0 | 0.00 | 0.01 | 0.01 | 62 | 1010.0 |
| 20260504022919 | 42 | 317 | 0.0 | 0.0 | 0.00 | 0.01 | 0.01 | 62 | 1010.0 |
| 20260504022158 | 42 | 317 | 0.0 | 0.0 | 0.00 | 0.01 | 0.01 | 63 | 1010.0 |
| 20260504021658 | 42 | 317 | 0.0 | 0.0 | 0.00 | 0.01 | 0.01 | 62 | 1009.9 |
| 20260504021158 | 42 | 317 | 0.0 | 0.0 | 0.00 | 0.01 | 0.01 | 62 | 1009.9 |
| 20260504020659 | 42 | 317 | 0.0 | 0.0 | 0.00 | 0.01 | 0.01 | 62 | 1009.9 |
| 20260504020158 | 43 | 317 | 0.0 | 0.0 | 0.00 | 0.01 | 0.01 | 61 | 1009.9 |
| 20260504015658 | 43 | 317 | 0.0 | 0.0 | 0.00 | 0.01 | 0.01 | 61 | 1009.8 |
| 20260504015157 | 43 | 317 | 0.0 | 0.0 | 0.00 | 0.01 | 0.01 | 61 | 1009.9 |